Presure
177 179 185 182 135 198 181 171 166 138 171 120 152 135 134 193 189 181 181 175 179 185 174 189 192 193 194 206 211 205 235 215 203 207 212 205 200 224 195 184 213 201 213
167 179 179 173 164 161 162 172 171 155 140 174 133 175 192 185 182 174 173 180 185 186 190 194 200 210 194 237 213 250 254 227 205 218 210 200 201 213 199 216 206 201 192
168 160 127 172 178 178 180 187 191 154 161 163 187 190 186 174 173 174 180 185 190 184 195 201 197 227 247 227 266 256 241 201 205 219 210 203 200 180 217 217 202 193 194
186 184 172 188 178 147 187 188 134 177 170 181 187 183 178 174 177 184 190 185 184 195 204 200 259 253 292 284 270 256 202 219 219 212 215 205 191 184 222 211 198 199 187
196 197 189 197 189 182 188 138 182 178 181 176 173 178 178 181 187 190 184 187 205 200 252 273 298 313 287 277 268 208 236 233 223 214 210 199 181 189 221 194 196 181 194
202 197 194 189 179 182 179 177 174 172 175 180 178 176 182 185 179 182 209 207 239 269 282 317 310 288 290 268 249 243 227 231 222 202 202 194 196 213 187 192 193 187 189
191 185 179 171 172 173 172 174 174 174 173 177 181 184 187 186 194 204 241 250 260 297 316 281 240 252 238 232 231 248 239 222 180 205 190 189 180 221 202 195 184 191 193
169 168 169 170 172 176 178 174 167 173 182 182 185 190 182 211 229 271 281 305 328 304 243 175 292 283 268 276 259 223 194 190 185 203 187 188 202 209 193 185 192 169 183
162 173 165 163 167 171 158 186 190 187 181 187 189 205 218 271 291 286 340 314 237 297 267 238 204 215 213 206 199 191 182 182 190 191 188 201 199 193 191 178 192 185 187
165 157 174 179 179 173 177 186 178 184 194 196 218 266 316 356 317 279 259 258 226 215 211 211 204 194 196 190 186 187 193 196 198 203 194 182 182 182 188 192 191 187 187
149 164 178 182 187 186 178 187 191 197 225 265 314 327 264 241 239 227 218 212 207 208 191 196 194 198 199 194 197 194 186 185 186 181 187 191 187 192 186 182 195 203 196
170 182 184 188 182 187 193 200 224 272 337 267 236 226 220 215 193 203 202 194 188 202 190 195 195 194 193 189 183 185 187 183 187 185 175 188 191 199 193 195 200 196 182
186 189 188 182 185 216 272 311 234 255 231 221 210 206 210 202 198 191 193 198 190 189 191 187 171 176 185 189 188 187 197 195 191 194 202 202 199 199 205 206 207 206 207
190 180 226 272 346 314 230 224 191 217 201 194 204 201 202 195 193 189 185 188 193 204 209 204 204 203 205 205 204 202 202 198 194 194 194 197 201 201 203 204 209 214 216
280 288 251 230 222 177 184 192 194 204 200 200 198 199 194 207 196 190 191 198 187 193 203 192 192 200 198 199 201 205 205 204 202 204 204 203 201 208 216 220 235 245 252
214 211 210 206 200 194 194 194 198 189 196 194 180 174 181 184 200 201 185 190 199 189 182 200 188 196 203 203 205 210 210 211 212 207 217 228 243 245 250 259 264 263 270
176 196 195 196 197 197 191 190 189 180 181 199 183 184 187 193 187 192 200 192 190 196 201 202 205 210 209 206 206 209 216 220 225 231 235 250 253 243 254 263 262 259 260
196 194 192 196 188 185 187 197 192 190 195 195 196 186 189 196 196 198 200 199 194 200 205 207 209 205 203 214 217 221 226 240 251 254 257 256 249 263 256 255 255 258 265
180 175 176 180 181 183 181 177 182 184 172 193 195 202 213 200 199 207 201 197 198 198 228 215 213 216 218 220 238 249 262 258 268 238 245 241 250 255 250 261 275 270 255
180 182 183 180 184 189 190 188 171 176 175 188 194 222 220 206 222 225 215 213 213 213 218 245 243 244 251 267 277 259 265 251 243 252 254 254 253 254 259 265 269 261 247
194 186 184 183 215 177 203 232 240 227 209 225 226 226 225 228 210 233 238 242 246 246 246 273 270 267 270 253 252 258 243 252 261 261 253 261 267 268 258 238 253 269 292
211 187 182 213 212 215 214 236 229 248 244 238 188 210 217 221 232 248 283 276 276 272 262 264 271 275 257 261 249 261 271 267 266 268 264 250 245 258 265 262 287 309 311
237 226 222 241 263 291 260 305 298 288 290 268 254 268 275 277 282 273 265 285 281 280 245 243 249 255 252 262 269 265 265 258 255 252 295 309 265 258 299 296 292 315 335
246 216 316 311 293 230 278 292 291 257 279 278 278 271 269 270 282 269 251 256 262 264 262 264 265 271 267 262 258 249 238 252 265 277 260 262 271 288 328 351 460 454 441
284 275 294 289 286 279 278 255 274 285 287 288 280 263 263 279 270 270 265 260 261 270 270 266 262 255 248 241 256 257 259 267 263 268 276 326 341 477 455 449 438 423 419
300 294 236 278 279 275 272 269 275 257 275 276 276 276 272 268 264 264 263 266 266 261 256 255 254 254 257 263 267 272 276 273 301 343 454 483 456 442 434 420 408 413 430
Wind_Speed
68 66 64 65 59 60 66 66 69 63 73 61 64 62 63 69 70 72 72 73 76 78 67 77 77 72 71 71 66 58 49 52 53 51 49 45 42 41 39 41 35 38 34
63 65 65 64 61 64 66 69 71 65 64 68 63 68 69 69 71 73 74 76 79 79 79 80 78 79 69 64 66 52 47 49 53 52 49 46 44 41 42 39 38 38 40
66 63 59 65 66 66 66 64 61 65 66 68 69 70 70 71 73 75 77 79 79 78 80 81 77 74 68 66 50 49 49 52 53 52 49 48 46 46 45 42 42 43 44
64 66 65 62 61 66 60 60 69 67 67 70 71 72 73 75 76 78 80 78 79 81 81 78 75 70 55 49 46 47 53 51 51 51 51 49 46 48 48 46 46 47 48
60 58 61 54 58 60 59 71 64 68 70 72 74 76 77 79 80 81 78 81 83 81 82 78 66 50 48 47 45 55 50 51 50 51 50 48 51 50 49 55 53 52 52
52 53 55 55 57 59 62 65 68 71 73 75 77 78 80 81 75 78 86 85 86 81 76 61 52 49 46 44 48 48 49 49 50 48 49 52 54 56 52 58 59 58 59
51 50 51 54 58 63 67 71 72 74 76 78 80 82 83 82 85 87 89 82 75 70 55 53 54 51 50 48 48 45 45 47 50 52 53 55 55 57 58 61 61 63 65
48 51 55 60 64 68 72 74 76 78 79 80 83 85 81 90 89 90 85 72 56 52 53 64 42 40 40 39 37 44 50 52 54 57 58 61 64 62 64 65 66 61 68
55 57 63 68 72 73 69 79 80 80 80 84 85 90 89 88 86 62 52 50 53 43 36 44 57 48 48 48 51 55 58 59 61 63 65 67 68 69 70 66 72 73 74
61 70 70 73 76 77 78 80 77 81 86 87 89 86 77 57 54 49 48 41 47 51 52 52 55 60 59 60 61 62 63 64 67 67 70 69 71 73 76 79 80 77 78
52 64 75 77 78 80 79 82 83 87 86 86 76 57 54 51 49 49 52 55 57 56 64 63 64 62 62 65 65 67 68 69 71 73 76 79 79 82 80 78 87 92 89
71 76 77 80 79 82 85 87 78 84 66 58 53 55 56 57 68 63 62 65 68 63 68 67 68 68 70 71 71 74 75 76 80 81 73 85 87 91 90 92 94 93 81
77 79 80 77 79 85 80 73 61 55 53 58 62 64 61 65 67 69 69 68 71 72 72 74 71 74 78 79 80 81 83 85 86 89 91 92 93 95 99 100 102 103 104
81 73 81 80 63 55 56 58 67 60 66 71 68 69 68 71 72 74 75 76 77 74 73 76 77 79 81 82 83 85 87 90 92 94 96 98 100 100 102 102 106 108 109
67 54 60 55 59 68 68 69 71 69 71 72 73 73 76 72 76 79 80 79 84 85 81 85 88 86 89 90 91 92 94 97 99 102 103 104 104 109 111 111 113 113 113
62 63 65 64 66 69 71 73 73 75 77 78 74 73 80 84 83 83 89 88 87 89 87 91 90 96 96 96 98 99 100 102 104 106 109 110 112 112 111 112 111 110 108
66 67 68 70 72 73 74 75 77 75 78 80 83 87 89 91 90 91 91 92 93 97 95 97 98 98 100 102 103 103 104 105 107 109 109 108 108 109 109 109 108 109 111
70 72 75 77 78 79 81 84 85 84 89 90 90 89 93 96 96 96 97 98 98 101 102 102 103 103 103 106 109 111 111 112 109 107 107 106 107 108 109 108 108 110 112
72 73 74 79 81 84 83 81 86 87 76 92 97 98 95 99 100 101 103 104 103 103 104 105 107 108 109 111 114 115 113 109 106 104 105 107 106 107 110 110 110 108 109
79 82 84 82 88 92 93 91 76 86 86 99 103 97 96 101 96 98 105 105 105 106 107 115 116 116 116 117 112 107 105 103 103 103 105 107 108 108 111 112 110 105 103
82 93 92 89 85 75 88 91 93 92 103 106 104 97 98 97 103 101 108 113 114 113 112 117 115 112 110 107 106 105 105 105 102 102 103 106 108 108 107 106 108 108 110
85 82 95 93 95 99 95 94 92 105 103 100 81 105 101 100 102 114 113 112 111 110 106 107 106 104 103 104 104 104 104 104 102 101 100 99 102 105 107 107 112 114 113
93 86 84 92 80 98 106 93 97 102 103 115 116 117 110 108 106 104 104 101 104 101 99 100 98 99 101 103 102 101 100 100 98 98 103 105 101 103 109 111 112 113 113
94 80 79 82 84 90 88 89 90 93 97 97 99 99 99 99 94 96 98 98 98 96 96 97 96 95 95 98 97 97 97 99 101 102 100 101 103 107 111 103 44 43 46
83 75 73 73 75 77 81 87 84 84 84 84 87 91 91 86 88 89 91 92 94 93 92 92 90 90 90 94 97 98 98 99 100 100 104 107 106 33 37 39 37 40 43
70 69 80 70 70 72 74 76 75 79 77 78 79 80 82 84 86 86 87 90 90 90 92 93 91 91 93 93 96 99 100 102 105 104 55 28 32 34 34 34 37 38 36
Wind_Direction
264 268 270 272 272 275 281 285 282 280 288 285 288 291 294 292 293 295 298 298 301 302 305 305 306 307 307 304 301 300 286 292 298 297 293 297 296 290 291 283 286 287 292
264 268 271 275 279 280 281 284 284 283 284 288 291 290 289 290 293 294 296 298 299 300 302 303 305 303 303 297 296 279 273 280 292 286 289 291 291 287 293 284 286 285 284
266 268 265 277 278 280 281 281 283 284 287 289 287 287 288 290 291 294 296 298 299 302 302 302 303 301 296 293 282 272 272 290 290 279 286 290 290 285 285 282 285 285 287
264 268 270 275 276 277 280 282 285 283 285 285 286 287 289 289 292 294 296 298 300 300 300 301 299 296 289 280 273 266 288 282 278 282 281 287 286 289 280 283 284 285 288
267 269 273 273 276 280 280 284 281 281 283 283 285 286 288 290 293 296 299 300 299 300 299 300 297 288 284 276 270 288 270 271 274 279 283 285 286 289 278 289 287 291 288
267 269 272 276 279 281 279 279 278 279 281 284 284 288 290 293 294 297 298 298 299 300 300 296 290 288 279 277 275 273 275 269 274 284 285 287 287 285 290 287 289 292 293
273 277 278 276 278 276 276 277 278 280 281 283 287 289 293 296 296 296 299 297 298 299 295 293 292 286 285 284 280 267 264 276 284 287 288 289 292 280 283 287 294 292 292
274 275 275 274 275 277 277 276 278 281 284 287 289 292 294 295 297 298 296 296 295 293 294 298 290 284 278 271 266 285 292 293 293 288 291 291 287 285 290 292 290 288 294
266 276 269 267 269 273 279 279 281 283 287 290 292 292 295 297 296 296 294 293 295 291 292 295 296 295 294 295 294 294 295 295 292 291 292 287 288 292 292 292 290 294 293
266 263 270 271 272 273 277 280 284 286 288 290 292 296 295 294 293 292 294 294 297 296 296 297 297 297 298 298 297 295 292 290 290 287 290 295 294 294 293 291 291 292 292
275 271 269 273 276 277 280 283 286 288 291 294 294 292 293 294 294 295 294 296 295 295 297 297 297 296 294 296 294 293 295 295 295 296 295 293 294 291 292 292 290 288 290
265 270 273 274 277 280 283 285 290 290 290 289 290 291 291 292 296 295 295 296 297 294 297 296 296 296 295 296 297 297 296 297 295 296 296 293 292 289 290 291 290 292 292
271 273 274 278 283 284 289 289 287 286 286 287 289 291 291 292 293 295 295 294 296 297 297 298 299 300 298 295 295 295 289 289 291 291 289 289 290 290 288 287 287 288 289
272 277 281 285 287 285 285 285 289 285 288 291 288 290 290 292 293 295 297 296 293 289 289 289 290 290 290 290 290 290 290 291 292 292 293 292 291 291 291 292 291 289 289
284 283 282 282 282 285 286 287 288 286 289 290 291 290 292 288 293 295 294 292 297 295 291 295 296 292 292 292 291 289 288 289 289 288 289 291 293 291 290 290 288 287 287
279 280 282 283 283 285 286 288 287 291 291 291 295 297 297 297 288 288 298 294 291 295 299 290 298 295 291 291 290 288 287 287 288 290 288 290 290 289 290 290 290 288 287
276 278 281 283 283 284 286 288 289 293 293 285 293 293 292 288 293 290 287 291 294 292 291 291 291 290 289 290 291 292 291 290 291 290 290 291 290 288 288 287 287 287 288
283 287 290 288 289 290 289 286 288 287 285 285 285 294 292 287 288 288 287 288 293 292 291 291 291 292 294 292 292 292 292 291 291 290 289 289 288 286 286 286 287 288 288
281 283 285 285 287 287 289 293 292 291 300 286 285 283 285 287 288 286 288 291 293 294 292 290 290 290 291 291 290 292 292 292 292 290 289 288 287 286 286 287 287 288 289
281 281 282 288 286 283 284 287 301 300 302 293 289 283 284 286 285 286 285 288 289 288 289 291 291 289 290 292 293 291 290 290 290 289 288 287 288 288 288 288 289 290 289
293 281 284 287 282 292 282 288 289 286 282 283 285 284 285 287 288 290 290 288 289 289 289 290 291 291 291 291 292 292 290 289 288 287 288 288 288 289 290 292 291 291 289
296 297 287 291 283 282 279 289 285 287 287 286 286 286 285 286 289 289 286 287 288 288 288 289 291 292 291 290 290 290 289 288 289 290 290 289 289 289 290 291 290 290 291
300 294 293 295 285 283 283 283 283 283 283 283 284 286 285 285 285 287 288 289 289 289 289 289 290 289 290 290 290 291 291 291 291 291 291 290 291 292 291 291 292 293 292
299 287 289 286 284 289 283 284 285 286 284 284 284 285 286 287 288 287 289 289 289 290 290 290 290 290 291 291 291 290 291 292 293 294 294 294 294 294 292 292 294 295 294
296 291 288 286 286 285 286 288 287 287 287 287 287 286 286 289 288 289 290 290 291 291 291 291 291 290 289 290 292 292 292 293 294 295 296 294 294 293 292 295 295 293 293
301 297 288 293 292 291 290 289 290 290 288 288 289 289 289 289 289 290 291 292 292 293 293 292 292 292 293 293 293 293 295 297 297 297 298 294 293 294 295 295 293 294 296